Regional Weather Roundup
Issued by NWS Cleveland, OH

Home | Current Version | Previous Version | Text Only | Print | Product List | Glossary Off
Versions: 1 2 3 4 5 6 7 8 9 10 11 12 13 14 15 16 17 18 19 20 21 22 23 24 25 26 27 28 29 30 31 32 33 34 35 36 37 38 39 40 41 42 43 44 45 46 47 48 49 50

000
ASUS41 KCLE 101600
RWRCLE
OHIO REGIONAL WEATHER ROUNDUP
NATIONAL WEATHER SERVICE WILMINGTON, OH
1100 AM EST WED FEB 10 2016

NOTE: "FAIR" INDICATES FEW OR NO CLOUDS BELOW 12,000 FEET WITH NO
SIGNIFICANT WEATHER AND/OR OBSTRUCTIONS TO VISIBILITY.

OHZ001>008-015>018-024>027-034-035-043-044-101700-
   NORTHWEST OHIO

CITY           SKY/WX    TMP DP  RH WIND       PRES   REMARKS
DEFIANCE       CLOUDY    23  14  68 W9        29.90R WCI  13
FINDLAY        LGT SNOW  21  14  74 W18G26    29.88R WCI   6
TOLEDO EXPRESS CLOUDY    22  13  68 W15G21    29.86R WCI   9
TOLEDO EXEC    CLOUDY    23  13  65 W16       29.87R WCI  10
LIMA           LGT SNOW  18  13  80 W17       29.89S WCI   3
$$

OHZ009>014-019>023-028>033-038-089-101700-
   NORTHEAST OHIO

CITY           SKY/WX    TMP DP  RH WIND       PRES   REMARKS
CLE-HOPKINS    LGT SNOW  21  15  78 W21G29    29.83R WCI   5
CLE-LAKEFRONT  SNOW      23  18  81 SW21G29   29.80R VSB 1/2 WCI   8
CUY CO. ARPT   LGT SNOW  21  18  86 SW16G25   29.78R WCI   7
LORAIN-ELYRIA  LGT SNOW  21  15  78 W18       29.82R WCI   6
ASHTABULA      CLOUDY    22  15  75 SW17      29.75R WCI   8
AKRON-CANTON   LGT SNOW  18  12  77 W14       29.80R WCI   4
WOOSTER        NOT AVBL
MANSFIELD      CLOUDY    18  13  80 W13G20    29.82R WCI   5
YOUNGSTOWN     LGT SNOW  21  14  74 SW18      29.76S FOG     WCI   6
$$

OHZ042-051>053-060>062-070>072-077>081-101700-
  SOUTHWEST OHIO

CITY           SKY/WX    TMP DP  RH WIND       PRES   REMARKS
CINC-COVINGTON LGT SNOW  16   9  74 W15       30.01R BLWGSNOWWCI   1
CINC-LUNKEN    LGT SNOW  17   9  70 W13       30.06R WCI   4
HAMILTON       LGT SNOW  18  10  71 W14       30.04R WCI   4
DAYTON         NOT AVBL
WRIGHT-PAT AFB NOT AVBL
DAYTON GENERAL LGT SNOW  16   8  71 W14       29.97R WCI   2
WILMINGTON     LGT SNOW  15   9  76 W17G25    29.95R WCI  -1
$$

OHZ036-037-039>041-045>050-054>059-063>069-073>076-082>088-101700-
  CENTRAL AND SOUTHEAST OHIO

CITY           SKY/WX    TMP DP  RH WIND       PRES   REMARKS
COLUMBUS       LGT SNOW  17  11  77 W14       29.92R WCI   3
OSU AIRPORT    LGT SNOW  17  11  77 W17       29.91R WCI   1
BOLTON FIELD   NOT AVBL
RICKENBACK AFB NOT AVBL
NEWARK         LGT SNOW  19  12  74 MISG      29.90R
MARION         CLOUDY    19  11  70 W14       29.88R WCI   6
LANCASTER      LGT SNOW  17  11  77 SW12G22   29.93R WCI   4
ZANESVILLE     LGT SNOW  20  11  68 W13G23    29.90R WCI   7
NEW PHILLY     LGT SNOW  17  12  80 SW9       29.87R WCI   6
$$



USA.gov is the U.S. government's official web portal to all federal, state and local government web resources and services.